EW7338 Weather Reports


time (UTC)temp
F
wind
direction
speed
knots
gust
knots
rain 1hr
in
rain 24hr
in
rain mn
in
humidity
%
barometer
mb
20260507214603 58 94 0.9 4.3 0.00 0.30 0.17 90 1002.5
20260507213026 56 117 0.0 1.7 0.00 0.30 0.17 94 1002.6
20260507211626 56 108 0.0 2.6 0.00 0.30 0.17 93 1002.6
20260507210031 56 104 1.7 3.5 0.00 0.30 0.17 94 1002.4
20260507204601 55 147 0.0 3.5 0.00 0.30 0.17 96 1002.5
20260507203021 55 150 1.7 3.5 0.02 0.30 0.17 94 1002.4
20260507201609 55 122 0.0 3.5 0.02 0.30 0.17 96 1002.4
20260507200014 54 104 2.6 4.3 0.02 0.30 0.17 96 1002.9
20260507194543 54 131 0.0 3.5 0.02 0.31 0.17 97 1003.2
20260507193005 54 152 0.0 0.9 0.00 0.28 0.15 97 1003.3
20260507191535 54 154 0.0 0.9 0.02 0.28 0.15 97 1003.6
20260507190005 54 191 0.0 2.6 0.02 0.28 0.15 96 1003.5
20260507184531 54 124 0.0 0.9 0.04 0.28 0.15 96 1003.8
20260507183059 55 115 0.0 0.9 0.05 0.28 0.15 96 1003.8
20260507181526 55 93 0.0 0.0 0.03 0.27 0.13 96 1003.8
20260507180056 55 110 0.0 0.9 0.09 0.27 0.13 96 1003.6
20260507174514 55 358 0.0 0.0 0.08 0.25 0.11 96 1003.7
20260507173043 56 117 0.0 0.0 0.09 0.24 0.10 96 1003.6
20260507171514 56 103 0.0 0.0 0.09 0.24 0.10 94 1003.8
20260507170037 57 143 0.0 0.9 0.03 0.18 0.04 93 1003.6
20260507164507 58 58 0.0 0.0 0.02 0.18 0.03 92 1003.5
20260507163039 58 360 0.0 0.0 0.00 0.16 0.01 88 1003.5
20260507161510 58 356 0.0 0.0 0.00 0.16 0.01 89 1003.6
20260507160043 58 356 0.0 0.0 0.00 0.16 0.01 87 1003.8
20260507154513 58 51 0.0 0.0 0.00 0.16 0.01 87 1003.9
20260507153045 58 51 0.0 0.0 0.00 0.16 0.01 87 1003.9
20260507151515 58 19 0.0 0.0 0.00 0.16 0.01 86 1003.9
20260507150046 58 39 0.0 0.0 0.00 0.16 0.01 86 1003.9
20260507144519 58 39 0.0 0.0 0.00 0.17 0.01 88 1003.9
20260507143049 58 39 0.0 0.0 0.00 0.17 0.01 88 1003.7
20260507141519 58 37 0.0 0.0 0.00 0.17 0.01 87 1003.7
20260507140104 58 39 0.0 0.0 0.00 0.17 0.01 87 1003.4
20260507134520 58 11 0.0 0.0 0.00 0.17 0.01 89 1004.0
20260507024626 64 347 0.0 0.0 0.06 0.09 0.09 94 1004.1
20260507023026 64 210 0.0 2.6 0.02 0.05 0.05 92 1004.0
20260507021616 65 163 0.0 5.2 0.00 0.03 0.03 90 1003.8
20260507020031 65 199 2.6 6.1 0.00 0.03 0.03 89 1003.6
20260507014616 66 207 0.9 4.3 0.00 0.03 0.03 89 1003.2
20260507013026 66 181 0.9 5.2 0.00 0.03 0.03 88 1003.0
20260507011559 66 159 0.9 7.0 0.00 0.03 0.03 88 1003.2
20260507010028 66 226 0.0 6.1 0.00 0.03 0.03 88 1003.5
20260507004559 66 134 0.0 0.9 0.00 0.03 0.03 87 1003.3
20260507003029 66 274 0.0 3.5 0.00 0.03 0.03 86 1003.0
20260507001606 66 191 0.0 2.6 0.00 0.03 0.03 85 1002.7
20260507000030 67 150 0.0 0.9 0.00 0.03 0.03 83 1002.8
20260506234602 68 146 0.0 3.5 0.00 0.03 0.03 81 1002.8
20260506233030 68 195 0.9 6.1 0.00 0.03 0.03 81 1002.9
20260506231602 68 208 0.9 7.8 0.00 0.03 0.03 81 1002.5
20260506230033 68 225 2.6 6.1 0.00 0.03 0.03 80 1002.8
20260506224502 68 226 2.6 8.7 0.00 0.03 0.03 80 1003.1
20260506223031 69 144 0.0 7.8 0.00 0.03 0.03 80 1003.2
20260506221601 69 201 0.9 8.7 0.00 0.03 0.03 80 1002.9
20260506220036 70 240 3.5 8.7 0.00 0.03 0.03 79 1002.9